Home > Weather > Shenyang > Past weeks

Flag for China Weather for the Past 2 Weeks in Shenyang, Liaoning, China

Now
14 °F

Clear.


Feels Like: 14 °F
Forecast: 15 / 38 °F
Wind: 1 mph from North

Location: Shenyang / Taoxian

Current Time: Feb 6, 2016 at 9:48:37 AM

Latest Report: Feb 6, 2016 at 9:00 AM


Visibility: 3 mi

Pressure: 30.36 "Hg

Humidity: 62%

Dew point: 3 °F

Location of ShenyangLocation

Historic Weather in Shenyang — Graph

°F

Shenyang Temperature Yesterday

Maximum temperature yesterday: 27 °F (at 2:00 PM)
Minimum temperature yesterday: 5 °F (at 4:30 AM)
Average temperature yesterday: 16 °F

High & Low Weather Summary for the Past Weeks

 TemperatureHumidityPressure
High36 °F (Feb 3, 1:30 PM)85% (Feb 5, 3:00 AM)30.74 "Hg (Feb 5, 3:00 AM)
Low-13 °F (Jan 23, 6:30 AM)17% (Jan 29, 2:30 PM)30.24 "Hg (Jan 25, 2:30 PM)
Average10 °F44%30.44 "Hg
* Reported Jan 22 8:00 AM — Feb 6 8:00 AM, Shenyang, Weather by CustomWeather, © 2016

Note: Actual official high and low records may vary slightly from our data, if they occured in-between our weather recording intervals... More about our weather records

Advertising

Shenyang Weather History for the Previous 24 Hours

 ConditionsComfort  
Time TempWeatherWind HumidityBarometerVisibility
8:00 AM
Sat, Feb 6
5 °FClear.1 mph72%30.36 "Hg3 mi
7:30 AM1 °FClear.1 mph71%30.33 "Hg4 mi
7:00 AM1 °FClear.1 mph71%30.33 "Hg4 mi
6:30 AM1 °FClear.No wind71%30.33 "Hg4 mi
6:00 AM1 °FClear.No wind71%30.33 "Hg10 mi
5:30 AM3 °FClear.1 mph66%30.30 "Hg10 mi
5:00 AM3 °FClear.1 mph72%30.30 "Hg10 mi
4:30 AM3 °FClear.1 mph72%30.30 "Hg10 mi
4:00 AM3 °FPassing clouds.3 mph72%30.30 "HgN/A
3:30 AM3 °FClear.3 mph72%30.30 "Hg10 mi
3:00 AM3 °FClear.1 mph72%30.30 "Hg10 mi
2:30 AM3 °FClear.3 mph72%30.30 "Hg10 mi
2:00 AM3 °FClear.1 mph66%30.30 "Hg10 mi
1:30 AM7 °FClear.3 mph66%30.30 "Hg4 mi
1:00 AM5 °FClear.3 mph66%30.30 "Hg4 mi
12:30 AM5 °FClear.1 mph66%30.30 "Hg4 mi
12:00 AM5 °FClear.1 mph66%30.30 "Hg4 mi
11:30 PM
Fri, Feb 5
9 °FClear.3 mph61%30.30 "Hg4 mi
11:00 PM7 °FClear.3 mph61%30.30 "Hg4 mi
10:30 PM9 °FClear.3 mph56%30.30 "Hg4 mi
10:00 PM10 °FClear.1 mph52%30.30 "Hg4 mi
9:30 PM10 °FClear.1 mph52%30.30 "Hg4 mi
9:00 PM10 °FClear.1 mph56%30.30 "Hg10 mi
8:30 PM12 °FClear.1 mph48%30.30 "Hg10 mi
8:00 PM12 °FClear.3 mph48%30.30 "Hg10 mi
7:30 PM14 °FClear.3 mph44%30.30 "Hg10 mi
7:00 PM18 °FClear.1 mph41%30.30 "Hg10 mi
6:30 PM19 °FClear.3 mph35%30.30 "Hg10 mi
6:00 PM19 °FClear.3 mph38%30.30 "Hg10 mi
5:30 PM21 °FClear.3 mph32%30.27 "Hg10 mi
5:00 PM23 °FSunny.3 mph33%30.27 "Hg10 mi
4:30 PM25 °FSunny.6 mph30%30.27 "Hg10 mi
4:00 PM25 °FSunny.6 mph30%30.27 "Hg10 mi
3:30 PM27 °FPassing clouds.6 mph28%30.27 "HgN/A
3:00 PM27 °FPassing clouds.8 mph28%30.27 "HgN/A
2:30 PM27 °FPassing clouds.8 mph28%30.27 "HgN/A
2:00 PM27 °FPassing clouds.8 mph28%30.27 "HgN/A
1:30 PM25 °FSunny.10 mph30%30.27 "Hg10 mi
1:00 PM25 °FPassing clouds.8 mph30%30.27 "HgN/A
12:30 PM25 °FPassing clouds.8 mph30%30.27 "HgN/A
12:00 PM25 °FPassing clouds.8 mph33%30.27 "HgN/A
11:30 AM25 °FPassing clouds.6 mph33%30.30 "HgN/A
10:30 AM21 °FPassing clouds.3 mph35%30.30 "HgN/A
10:00 AM21 °FPassing clouds.3 mph38%30.30 "HgN/A
9:30 AM19 °FSunny.3 mph45%30.30 "Hg10 mi
9:00 AM18 °FClear.3 mph49%30.30 "Hg4 mi
Weather by CustomWeather, © 2016

See weather overviewHow to use our weather pages